Regional Weather Roundup
Issued by NWS

Home | Current Version | Previous Version | Text Only | Print | Product List | Glossary Off
Versions: 1 2 3 4 5 6 7 8 9 10 11 12 13 14 15 16 17 18 19 20 21 22 23 24 25 26 27 28 29 30 31 32 33 34 35 36 37 38 39 40 41 42 43 44 45 46 47 48 49 50

000
ASUS43 KMKX 231500
RWRWI

WISCONSIN REGIONAL WEATHER ROUNDUP
NATIONAL WEATHER SERVICE MILWAUKEE/SULLIVAN WI
1000 AM CDT FRI JUN 23 2017

NOTE: "FAIR" INDICATES FEW OR NO CLOUDS BELOW 12,000 FEET WITH NO
SIGNIFICANT WEATHER AND/OR OBSTRUCTIONS TO VISIBILITY.

WIZ001-002-006>008-014>016-023>028-231600-
NORTHWEST WISCONSIN

CITY           SKY/WX    TMP DP  RH WIND       PRES   REMARKS
SUPERIOR ARPT  NOT AVBL
ASHLAND        MOSUNNY   67  52  58 W12G20    29.67S
HAYWARD        MOSUNNY   64  48  56 W8        29.71F
SIREN          MOSUNNY   65  50  59 NW12G17   29.73F
CUMBERLAND     SUNNY     63  48  59 NW13      29.74R
RICE LAKE      SUNNY     64  49  57 W12       29.75R
CHETEK         SUNNY     64  51  62 NW10      29.73S
LADYSMITH      SUNNY     66  51  60 W9G16     29.73S
EAU CLAIRE     NOT AVBL
MENOMONIE      SUNNY     65  52  60 W17       29.75S
NEW RICHMOND   SUNNY     65  50  58 W12       29.77S
OSCEOLA        SUNNY     65  51  61 W13       29.79S
$$

WIZ003>005-009-010-017-018-231600-
NORTH CENTRAL WISCONSIN

CITY           SKY/WX    TMP DP  RH WIND       PRES   REMARKS
MANITOWISH WTR SUNNY     64  49  57 W10       29.67S
ARBOR VITAE    SUNNY     64  51  62 NW6       29.67F
WOODRUFF       SUNNY     64  51  62 NW6       29.67F
RHINELANDER    SUNNY     66  54  65 W10       29.68F
EAGLE RIVER    SUNNY     65  49  56 W12       29.66F
LAND O LAKES   SUNNY     67  48  49 W8        29.67F
PHILLIPS       SUNNY     64  52  66 W8        29.69S
TOMAHAWK       NOT AVBL
MEDFORD        SUNNY     64  53  69 W12       29.72R
MERRILL        SUNNY     67  55  66 W10       29.70R
$$

WIZ029-030-035-036-043>047-231600-
CENTRAL WISCONSIN

CITY           SKY/WX    TMP DP  RH WIND       PRES   REMARKS
WAUSAU         SUNNY     70  56  61 W9        29.68S
MOSINEE        MOSUNNY   70  57  64 W9        29.72R
MARSHFIELD     SUNNY     68  56  65 W12       29.71S
STEVENS POINT  SUNNY     67  56  68 SW9       29.71S
WAUPACA        CLOUDY    70  63  77 W7        29.71R
WAUTOMA        CLOUDY    69  63  81 W7        29.72R
WISC RAPIDS    SUNNY     71  59  65 W9        29.72S
CAMP DOUGLAS   NOT AVBL
$$

WIZ011>013-019>022-031-037>040-048>050-231600-
NORTHEAST WISCONSIN

CITY           SKY/WX    TMP DP  RH WIND       PRES   REMARKS
ANTIGO         SUNNY     66  57  71 W9        29.69S
SHAWANO        MOSUNNY   70  61  74 W6        29.67R
OCONTO         CLOUDY    70  61  71 W5        29.64F
STURGEON BAY     N/A     69  60  73 W9          N/A
GREEN BAY      PTSUNNY   74  63  68 SW6       29.66F
MANITOWOC      NOT AVBL
APPLETON       MOSUNNY   70  57  64 W7        29.68R
CLINTONVILLE   PTSUNNY   68  61  77 W7        29.68R
OSHKOSH        CLOUDY    71  61  70 W6        29.69R
$$

WIZ032>034-041-042-053>061-231600-
SOUTHWEST WISCONSIN

CITY           SKY/WX    TMP DP  RH WIND       PRES   REMARKS
LA CROSSE      SUNNY     73  58  59 W9        29.74S
SPARTA         SUNNY     67  62  83 W5        29.75R
VIROQUA        SUNNY     69  61  77 W8        29.77S
BOSCOBEL       SUNNY     73  65  75 SW6       29.76F
PRAIRIE DU CHI SUNNY     71  60  68 W3        29.77F
PLATTEVILLE    MOSUNNY   70  65  82 W8        29.79S
$$

WIZ056-057-062-063-064-067-068-231600-
SOUTH CENTRAL WISCONSIN

CITY           SKY/WX    TMP DP  RH WIND       PRES   REMARKS
REEDSBURG      CLOUDY    69  65  88 SW7       29.74S
BARABOO/DELLS  CLOUDY    68  61  78 W7        29.74S
LONE ROCK      CLOUDY    68  63  84 W9        29.75F
MINERAL POINT  PTSUNNY   72  63  73 NW5       29.77F
MADISON        PTSUNNY   73  61  65 VRB5      29.73S
MIDDLETON      MOSUNNY   72  63  73 W6        29.75R
WATERTOWN      MOSUNNY   70  62  77 W9        29.73R
MONROE         MOSUNNY   70  59  68 NW6       29.76S
JANESVILLE     MOSUNNY   73  63  68 NW6       29.73S
$$

WIZ051-052-058>065-066-070>072-231600-
SOUTHEAST WISCONSIN

CITY           SKY/WX    TMP DP  RH WIND       PRES   REMARKS
MILWAUKEE      CLOUDY    72  62  71 NW9       29.70R
WAUKESHA       SUNNY     66  61  82 W9        29.73R
MILWAUKEE/TIMM SUNNY     70  57  64 NW9       29.71R
RACINE         PTSUNNY   70  61  73 NW8       29.71S
KENOSHA        CLOUDY    70  62  76 NW8       29.71S
FOND DU LAC    MOSUNNY   73  59  61 W9        29.70S
SHEBOYGAN      MOSUNNY   72  61  68 W13       29.69R
WEST BEND      MOSUNNY   70  61  73 NW12      29.71R
JUNEAU         MOSUNNY   69  61  77 W3        29.73R
$$

LSZ147-162-231600-
LAKE SUPERIOR

STATION/POSITION TIME  TEMP    WIND        PRES    WAVE
                       AIR SEA DIR/SP/G            HT/PER
                 (UTC) (F)     (DEG/KT/KT) (MB)    (FT/S)
W MID LAKE BUOY  1350   46 39  260/ 12/ 14 1002.2R   1/ 3
DEVILS ISLAND    1400   55     240/ 17/ 19 1003.4S
SAXON HARBOR     1440   65     290/  9/ 13 1004.4R
$$

LMZ867-665-643>646-231600-
LAKE MICHIGAN

STATION/POSITION TIME  TEMP    WIND        PRES    WAVE
                       AIR SEA DIR/SP/G            HT/PER
                 (UTC) (F)     (DEG/KT/KT) (MB)    (FT/S)
CHAMBERS ISLAND  1440   68     200/  3/  6 1003.4S
S GREEN BAY BUOY 1430   67     270/  6/  6 1003.9F
N MID LAKE BUOY  1250   59 56  280/ 12/ 14 1003.1F   1/ 4
NORTHPORT PIER   1440   68     290/  5/ 10 1003.4S
KEWAUNEE LAKESHO 1430   70     300/  9/ 12 1003.8S
SHEBOYGAN LAKESH 1400   68     290/ 11/ 13 1004.3R
PORT WASHINGTON  1430   71     310/  7/ 13 1006.1R
ATWATER BUOY     1309   63 60  310/  6/  8 1005.5
MILWAUKEE LAKESH 1440   69     300/  9/ 10   N/A
S MID LAKE BUOY  1350   62 61  300/  4/  6 1004.8R   1/ 4
KENOSHA   LAKESH 1400   68     280/  5/  7 1005.8
$$

TC  - TEMPERATURE IN CELSIUS
VSB - VISIBILITY IN STATUTE MILES
WCI - WIND CHILL INDEX
HX  - HEAT INDEX




USA.gov is the U.S. government's official web portal to all federal, state and local government web resources and services.